Location: Bonneuil
(46.1010°N, 2.9693°E)
Time: 22:02:09
(UTC+00:00)

COSMOS 2406 - Pass Details

Date: 09 April 2020
Orbit: 842 x 865 km, 71.0° (Epoch: 25 May)

Event Time Altitude Azimuth Distance (km) Brightness Sun altitude
Exits shadow 20:55:04 39° 185° (S) 1,244 3.8 -23.4°
Maximum altitude 20:57:10 71° 113° (ESE) 898 3.1 -23.7°
Drops below altitude 10° 21:02:51 10° 30° (NNE) 2,490 5.8 -24.4°
Sets 21:05:20 0° 29° (NNE) 3,434 6.6 -24.7°
